Home   Weather   Chesapeake   Past weeks

Flag for USA Past Weather in Chesapeake, Virginia, USA — Yesterday and Last 2 Weeks

80 °F


Feels Like: 81 °F
Forecast: 58 / 78 °F
Wind: 5 mph from Southwest

Location: Chesapeake Municipal Airport

Current Time: Oct 21, 2016 at 2:36:36 PM

Latest Report: Oct 21, 2016 at 2:15 PM

Visibility: 10 mi

Pressure: 29.60 "Hg

Humidity: 50%

Dew Point: 60 °F

Location of ChesapeakeLocation

Past Weather in Chesapeake — Graph


Chesapeake Temperature Yesterday

Maximum temperature yesterday: 82 °F (at 2:35 PM)
Minimum temperature yesterday: 60 °F (at 11:35 PM)
Average temperature yesterday: 70 °F

High & Low Weather Summary for the Past Weeks

High85 °F (Oct 19, 2:35 PM)100% (Oct 13, 5:55 AM)30.42 "Hg (Oct 13, 5:55 AM)
Low45 °F (Oct 11, 6:55 AM)46% (Oct 10, 4:15 PM)29.64 "Hg (Oct 8, 11:55 PM)
Average65 °F82%30.12 "Hg
* Reported Oct 6 1:15 PM — Oct 21 1:15 PM, Chesapeake, Weather by CustomWeather, © 2016

Note: Actual official high and low records may vary slightly from our data, if they occured in-between our weather recording intervals... More about our weather records


Chesapeake Weather History for the Previous 24 Hours

Scroll right to see more
Time TempWeatherWind HumidityBarometerVisibility
1:15 PM
Fri, Oct 21
79 °FSunny.6 mph54%29.65 "Hg10 mi
12:55 PM79 °FSunny.5 mph55%29.66 "Hg10 mi
12:35 PM79 °FSunny.8 mph58%29.67 "Hg10 mi
12:15 PM78 °FSunny.7 mph61%29.69 "Hg10 mi
11:55 AM77 °FSunny.5 mph61%29.70 "Hg10 mi
11:35 AM77 °FSunny.7 mph64%29.71 "Hg10 mi
11:15 AM75 °FSunny.6 mph67%29.71 "Hg10 mi
10:55 AM74 °FSunny.6 mph72%29.72 "Hg10 mi
10:15 AM71 °FSunny.No wind79%29.74 "Hg10 mi
9:55 AM70 °FSunny.No wind86%29.74 "Hg10 mi
9:35 AM69 °FSunny.No wind91%29.75 "Hg10 mi
9:15 AM65 °FScattered clouds.No wind99%29.76 "Hg10 mi
8:55 AM63 °FFog.No wind99%29.76 "Hg2 mi
8:35 AM61 °FFog.No wind99%29.77 "Hg0 mi
8:15 AM60 °FFog.No wind99%29.78 "Hg1 mi
7:55 AM60 °FFog.No wind99%29.78 "Hg1 mi
7:35 AM59 °FFog.No wind99%29.78 "Hg1 mi
7:15 AM59 °FFog.No wind99%29.78 "Hg2 mi
6:55 AM59 °FFog.No wind99%29.78 "Hg0 mi
6:15 AM59 °FFog.No wind99%29.79 "Hg1 mi
5:55 AM59 °FFog.No wind99%29.79 "Hg1 mi
5:35 AM60 °FFog.No wind99%29.80 "Hg1 mi
5:15 AM60 °FFog.No wind99%29.80 "Hg0 mi
4:55 AM60 °FFog.No wind99%29.81 "Hg1 mi
4:35 AM59 °FFog.No wind99%29.81 "Hg1 mi
4:15 AM60 °FFog.No wind99%29.82 "Hg0 mi
3:55 AM60 °FFog.No wind98%29.83 "Hg0 mi
3:35 AM59 °FFog.No wind98%29.84 "Hg1 mi
3:15 AM59 °FFog.No wind99%29.85 "Hg0 mi
2:55 AM60 °FFog.No wind99%29.86 "Hg1 mi
2:35 AM58 °FFog.3 mph98%29.87 "Hg1 mi
2:15 AM60 °FPassing clouds.No wind93%29.87 "Hg10 mi
1:55 AM60 °FPassing clouds.No wind96%29.88 "Hg10 mi
1:35 AM63 °FClear.No wind99%29.89 "Hg10 mi
1:15 AM63 °FPassing clouds.No wind98%29.90 "Hg10 mi
12:55 AM60 °FFog.No wind99%29.91 "Hg2 mi
12:35 AM60 °FFog.No wind98%29.92 "Hg1 mi
12:15 AM59 °FPassing clouds.No wind95%29.93 "Hg10 mi
11:55 PM
Thu, Oct 20
60 °FClear.No wind94%29.94 "Hg7 mi
11:35 PM60 °FClear.No wind96%29.94 "Hg10 mi
11:15 PM61 °FClear.No wind97%29.95 "Hg10 mi
10:55 PM63 °FClear.No wind92%29.96 "Hg10 mi
10:15 PM64 °FClear.No wind97%29.96 "Hg7 mi
9:55 PM65 °FClear.No wind97%29.96 "Hg7 mi
9:35 PM65 °FClear.No wind96%29.96 "Hg7 mi
9:15 PM65 °FClear.No wind95%29.97 "Hg7 mi
8:55 PM66 °FClear.No wind95%29.97 "Hg7 mi
8:35 PM67 °FClear.3 mph94%29.97 "Hg10 mi
8:15 PM67 °FClear.No wind92%29.97 "Hg10 mi
7:55 PM68 °FClear.5 mph89%29.97 "Hg10 mi
7:35 PM69 °FClear.5 mph87%29.97 "Hg10 mi
7:15 PM69 °FClear.6 mph87%29.97 "Hg10 mi
6:55 PM71 °FClear.7 mph84%29.97 "Hg10 mi
6:35 PM71 °FClear.8 mph84%29.97 "Hg7 mi
6:15 PM72 °FSunny.6 mph82%29.97 "Hg7 mi
5:55 PM74 °FLight rain. Sunny.6 mph78%29.97 "Hg10 mi
5:35 PM76 °FSunny.8 mph76%29.97 "Hg10 mi
5:15 PM78 °FSunny.5 mph69%29.97 "Hg7 mi
4:55 PM78 °FLight rain. Partly sunny.9 mph69%29.97 "Hg10 mi
4:35 PM80 °FPartly sunny.7 mph56%29.97 "Hg7 mi
4:15 PM78 °FScattered clouds.7 mph58%29.98 "Hg10 mi
3:55 PM80 °FPartly sunny.7 mph55%29.98 "Hg7 mi
3:35 PM82 °FPartly sunny.8 mph53%29.98 "Hg7 mi
3:15 PM81 °FSunny.7 mph51%29.98 "Hg10 mi
2:55 PM82 °FSunny.9 mph48%29.99 "Hg7 mi
2:35 PM82 °FScattered clouds.12 mph51%29.99 "Hg10 mi
2:15 PM81 °FSunny.7 mph53%30.00 "Hg7 mi
Weather by CustomWeather, © 2016

See weather overviewHow to use our weather pages